Location: Wanzleben
(52.0609°N, 11.4408°E)
Time: 16:09:56
(UTC+00:00)

USA 238 DEB - Pass Details

Date: 18 September 2020
Orbit: 1006 x 1206 km, 63.4° (Epoch: 15 October)

Event Time Altitude Azimuth Distance (km) Brightness Sun altitude
Rises 17:40:33 0° 309° (NW) 3,892 7.8 -3.8°
Reaches altitude 10° 17:43:15 10° 314° (NW) 2,963 7.0 -4.2°
Maximum altitude 17:50:11 53° 31° (NNE) 1,372 4.2 -5.3°
Drops below altitude 10° 17:57:24 10° 108° (ESE) 3,091 5.4 -6.4°
Enters shadow 17:58:12 - 110° (ESE) 3,361 5.6 -6.5°
